DW0414 Weather Reports


time (UTC)temp
C
wind
direction
speed
KPH
gust
KPH
rain 1hr
cm
rain 24hr
cm
rain mn
cm
humidity
%
barometer
mb
20260502161547 9 113 1.6 8.0 0.00 0.00 0.00 41 1021.0
20260502151545 7 55 1.6 3.2 0.00 0.00 0.00 48 1021.5
20260502123058 -5 0 0.0 1.6 0.00 0.00 0.00 84 1021.6
20260502121550 -5 326 1.6 3.2 0.00 0.00 0.00 85 1021.5
20260502114549 -5 0 0.0 1.6 0.00 0.00 0.00 84 1021.5
20260502113053 -5 0 0.0 1.6 0.00 0.00 0.00 84 1021.4
20260502111549 -5 0 0.0 0.0 0.00 0.00 0.00 84 1021.4
20260502110047 -4 0 0.0 1.6 0.00 0.00 0.00 82 1021.6
20260502104549 -4 0 0.0 1.6 0.00 0.00 0.00 81 1021.6
20260502103049 -4 0 0.0 0.0 0.00 0.00 0.00 81 1021.4
20260502101551 -4 0 0.0 0.0 0.00 0.00 0.00 81 1021.5
20260502070055 -2 0 0.0 1.6 0.00 0.00 0.00 74 1021.0
20260502064549 -2 0 0.0 1.6 0.00 0.00 0.00 73 1020.9
20260502063045 -1 0 0.0 1.6 0.00 0.00 0.00 73 1020.8
20260502061548 -1 82 0.0 3.2 0.00 0.00 0.00 70 1020.6
20260502060051 -1 78 0.0 1.6 0.00 0.00 0.00 70 1020.7
20260502054555 -1 0 0.0 1.6 0.00 0.00 0.00 69 1020.6
20260502053049 -1 0 0.0 0.0 0.00 0.00 0.00 68 1020.6
20260502051546 0 116 0.0 1.6 0.00 0.00 0.00 66 1020.4
20260502050049 0 117 1.6 3.2 0.00 0.00 0.00 67 1020.5
20260502044551 0 45 0.0 3.2 0.00 0.00 0.00 63 1020.5
20260502043055 1 331 0.0 1.6 0.00 0.00 0.00 60 1020.3
20260502041551 1 29 0.0 1.6 0.00 0.00 0.00 59 1020.2
20260502040047 2 0 0.0 3.2 0.00 0.00 0.00 60 1019.9
20260502034549 3 25 0.0 4.8 0.00 0.00 0.00 54 1019.8
20260502033047 3 269 1.6 3.2 0.00 0.00 0.00 53 1019.5
20260502031551 4 11 0.0 3.2 0.00 0.00 0.00 50 1019.3
20260502030046 5 0 0.0 1.6 0.00 0.00 0.00 48 1019.0
20260502024549 6 0 1.6 3.2 0.00 0.00 0.00 44 1018.6
20260502023048 7 0 0.0 0.0 0.00 0.00 0.00 39 1018.4
20260502021551 10 0 0.0 1.6 0.00 0.00 0.00 34 1018.4
20260502020050 13 281 0.0 4.8 0.00 0.00 0.00 29 1018.4
20260502014556 13 244 3.2 9.7 0.00 0.00 0.00 25 1018.1
20260502013055 14 261 3.2 8.0 0.00 0.00 0.00 24 1018.1
20260502011553 14 286 3.2 9.7 0.00 0.00 0.00 24 1018.1
20260502010050 14 274 6.4 11.3 0.00 0.00 0.00 25 1018.1
20260502004554 15 0 3.2 8.0 0.00 0.00 0.00 22 1018.0
20260502003048 15 139 6.4 9.7 0.00 0.00 0.00 22 1018.1
20260502001553 14 0 4.8 17.7 0.00 0.00 0.00 23 1018.1
20260501234556 15 293 8.0 14.5 0.00 0.00 0.00 24 1018.1
20260501233102 14 294 11.3 19.3 0.00 0.00 0.00 23 1018.1
20260501231557 14 309 8.0 17.7 0.00 0.00 0.00 23 1018.1
20260501230100 13 301 6.4 14.5 0.00 0.00 0.00 22 1018.3
20260501224554 14 299 4.8 17.7 0.00 0.00 0.00 23 1018.4
20260501223052 13 359 4.8 12.9 0.00 0.00 0.00 23 1018.4
20260501221551 13 251 6.4 20.9 0.00 0.00 0.00 24 1018.5
20260501220055 13 282 8.0 17.7 0.00 0.00 0.00 24 1018.7
20260501214548 13 285 3.2 17.7 0.00 0.00 0.00 26 1018.8
20260501213047 13 245 9.7 19.3 0.00 0.00 0.00 23 1019.2
20260501211549 13 296 9.7 19.3 0.00 0.00 0.00 26 1019.2
20260501210050 12 264 9.7 20.9 0.00 0.00 0.00 25 1019.3
20260501204545 12 289 12.9 19.3 0.00 0.00 0.00 26 1019.4
20260501203048 12 275 9.7 19.3 0.00 0.00 0.00 27 1019.4
20260501201556 12 283 9.7 20.9 0.00 0.00 0.00 29 1019.3
20260501200047 12 27 3.2 14.5 0.00 0.00 0.00 29 1019.5
20260501194547 11 253 4.8 17.7 0.00 0.00 0.00 31 1019.6
20260501193049 11 291 8.0 19.3 0.00 0.00 0.00 35 1019.7
20260501191550 11 141 3.2 12.9 0.00 0.00 0.00 31 1019.7
20260501190049 11 231 1.6 12.9 0.00 0.00 0.00 35 1019.8
20260501184547 11 229 6.4 14.5 0.00 0.00 0.00 33 1020.1
20260501183052 10 231 6.4 16.1 0.00 0.00 0.00 35 1020.2
20260501181552 10 126 4.8 14.5 0.00 0.00 0.00 36 1020.5
20260501180052 9 233 4.8 12.9 0.00 0.00 0.00 38 1020.5
20260501174551 8 51 1.6 11.3 0.00 0.00 0.00 38 1020.9
20260501173050 8 281 8.0 11.3 0.00 0.00 0.00 38 1021.0
20260501171545 8 260 9.7 14.5 0.00 0.00 0.00 37 1021.0
20260501170056 7 285 4.8 9.7 0.00 0.00 0.00 41 1021.1
20260501164547 7 240 3.2 9.7 0.00 0.00 0.00 43 1021.1
20260501163045 6 102 3.2 9.7 0.00 0.00 0.00 44 1021.4